Time,TemperatureF,DewpointF,PressureIn,WindDirection,WindDirectionDegrees,WindSpeedMPH,WindSpeedGustMPH,Humidity,HourlyPrecipIn,Conditions,Clouds,dailyrainin,SoftwareType,DateUTC
2013-03-12 00:00:00,56.1,45.3,30.06,SSE,161,0.0,0.0,67,0.00,,---,0.00,VWS V14.01,2013-03-12 07:00:00,
2013-03-12 00:05:00,55.9,45.2,30.06,SSE,161,0.0,0.0,67,0.00,,---,0.00,VWS V14.01,2013-03-12 07:05:00,
2013-03-12 00:10:00,55.8,45.0,30.06,SSE,161,0.0,0.0,67,0.00,,---,0.00,VWS V14.01,2013-03-12 07:10:00,
2013-03-12 00:15:00,55.8,45.0,30.06,SSE,161,0.0,0.0,67,0.00,,---,0.00,VWS V14.01,2013-03-12 07:15:00,
2013-03-12 00:20:00,55.4,44.6,30.06,SSE,161,0.0,0.0,67,0.00,,---,0.00,VWS V14.01,2013-03-12 07:20:00,
2013-03-12 00:25:00,55.4,44.6,30.06,SSE,161,0.0,0.0,67,0.00,,---,0.00,VWS V14.01,2013-03-12 07:25:00,
2013-03-12 00:30:00,55.2,44.9,30.06,SSE,161,0.0,0.0,68,0.00,,---,0.00,VWS V14.01,2013-03-12 07:30:00,
2013-03-12 00:35:00,55.0,44.7,30.06,SSE,161,0.0,0.0,68,0.00,,---,0.00,VWS V14.01,2013-03-12 07:35:00,
2013-03-12 00:40:00,55.0,44.7,30.06,SSE,161,0.0,0.0,68,0.00,,---,0.00,VWS V14.01,2013-03-12 07:40:00,
2013-03-12 00:45:00,54.9,44.5,30.06,SSE,161,0.0,0.0,68,0.00,,---,0.00,VWS V14.01,2013-03-12 07:45:00,
2013-03-12 00:50:00,54.7,44.3,30.06,SSE,161,0.0,0.0,68,0.00,,---,0.00,VWS V14.01,2013-03-12 07:50:00,
2013-03-12 00:55:00,54.5,44.5,30.06,SSE,161,0.0,0.0,69,0.00,,---,0.00,VWS V14.01,2013-03-12 07:55:00,
2013-03-12 01:00:00,54.5,44.5,30.06,SSE,161,0.0,0.0,69,0.00,,---,0.00,VWS V14.01,2013-03-12 08:00:00,
2013-03-12 01:05:00,54.5,44.5,30.06,SSE,161,0.0,0.0,69,0.00,,---,0.00,VWS V14.01,2013-03-12 08:05:00,
2013-03-12 01:10:00,54.3,44.8,30.03,SSE,161,0.0,0.0,70,0.00,,---,0.00,VWS V14.01,2013-03-12 08:10:00,
2013-03-12 01:15:00,54.1,44.6,30.03,SSE,161,0.0,0.0,70,0.00,,---,0.00,VWS V14.01,2013-03-12 08:15:00,
2013-03-12 01:20:00,54.0,44.4,30.03,SSE,161,0.0,0.0,70,0.00,,---,0.00,VWS V14.01,2013-03-12 08:20:00,
2013-03-12 01:25:00,53.8,44.2,30.03,SSE,161,0.0,0.0,70,0.00,,---,0.00,VWS V14.01,2013-03-12 08:25:00,
2013-03-12 01:30:00,53.6,44.1,30.03,SSE,161,0.0,0.0,70,0.00,,---,0.00,VWS V14.01,2013-03-12 08:30:00,
2013-03-12 01:35:00,53.4,43.9,30.03,SSE,161,0.0,0.0,70,0.00,,---,0.00,VWS V14.01,2013-03-12 08:35:00,
2013-03-12 01:40:00,53.2,43.7,30.03,SSE,161,0.0,0.0,70,0.00,,---,0.00,VWS V14.01,2013-03-12 08:40:00,
2013-03-12 01:45:00,53.1,43.5,30.03,SSE,161,0.0,0.0,70,0.00,,---,0.00,VWS V14.01,2013-03-12 08:45:00,
2013-03-12 01:50:00,52.9,43.4,30.03,SSE,161,0.0,0.0,70,0.00,,---,0.00,VWS V14.01,2013-03-12 08:50:00,
2013-03-12 01:55:00,52.7,43.2,30.00,SSE,161,0.0,0.0,70,0.00,,---,0.00,VWS V14.01,2013-03-12 08:55:00,
2013-03-12 02:00:00,52.5,43.0,30.00,SSE,161,0.0,0.0,70,0.00,,---,0.00,VWS V14.01,2013-03-12 09:00:00,
2013-03-12 02:05:00,52.3,42.9,30.00,SSE,161,0.0,0.0,70,0.00,,---,0.00,VWS V14.01,2013-03-12 09:05:00,
2013-03-12 02:10:00,52.3,42.9,30.00,SSE,161,0.0,0.0,70,0.00,,---,0.00,VWS V14.01,2013-03-12 09:10:00,
2013-03-12 02:15:00,52.2,42.7,30.00,SSE,161,0.0,0.0,70,0.00,,---,0.00,VWS V14.01,2013-03-12 09:15:00,
2013-03-12 02:20:00,52.0,42.9,30.00,SSE,161,0.0,0.0,71,0.00,,---,0.00,VWS V14.01,2013-03-12 09:20:00,
2013-03-12 02:25:00,51.8,42.7,30.00,SSE,161,0.0,0.0,71,0.00,,---,0.00,VWS V14.01,2013-03-12 09:25:00,
2013-03-12 02:30:00,51.6,42.5,30.00,SSE,161,0.0,0.0,71,0.00,,---,0.00,VWS V14.01,2013-03-12 09:30:00,
2013-03-12 02:35:00,51.4,42.4,30.00,SSE,161,0.0,0.0,71,0.00,,---,0.00,VWS V14.01,2013-03-12 09:35:00,
2013-03-12 02:40:00,51.4,42.4,30.03,SSE,161,0.0,0.0,71,0.00,,---,0.00,VWS V14.01,2013-03-12 09:40:00,
2013-03-12 02:45:00,51.3,42.2,30.03,SSE,161,0.0,0.0,71,0.00,,---,0.00,VWS V14.01,2013-03-12 09:45:00,
2013-03-12 02:50:00,51.1,42.0,30.03,SSE,161,0.0,0.0,71,0.00,,---,0.00,VWS V14.01,2013-03-12 09:50:00,
2013-03-12 02:55:00,51.1,42.0,30.00,SSE,161,0.0,0.0,71,0.00,,---,0.00,VWS V14.01,2013-03-12 09:55:00,
2013-03-12 03:00:00,50.9,41.8,30.00,SSE,161,0.0,0.0,71,0.00,,---,0.00,VWS V14.01,2013-03-12 10:00:00,
2013-03-12 03:05:00,50.7,41.7,30.00,SSE,161,0.0,0.0,71,0.00,,---,0.00,VWS V14.01,2013-03-12 10:05:00,
2013-03-12 03:10:00,50.7,41.7,30.00,SSE,161,0.0,0.0,71,0.00,,---,0.00,VWS V14.01,2013-03-12 10:10:00,
2013-03-12 03:15:00,50.7,41.7,30.00,SSE,161,0.0,0.0,71,0.00,,---,0.00,VWS V14.01,2013-03-12 10:15:00,
2013-03-12 03:20:00,50.5,41.5,30.00,SSE,161,0.0,0.0,71,0.00,,---,0.00,VWS V14.01,2013-03-12 10:20:00,
2013-03-12 03:25:00,50.5,41.5,30.00,SSE,161,0.0,0.0,71,0.00,,---,0.00,VWS V14.01,2013-03-12 10:25:00,
2013-03-12 03:30:00,50.5,41.5,30.00,SSE,161,0.0,0.0,71,0.00,,---,0.00,VWS V14.01,2013-03-12 10:30:00,
2013-03-12 03:35:00,50.4,41.3,30.00,SSE,161,0.0,0.0,71,0.00,,---,0.00,VWS V14.01,2013-03-12 10:35:00,
2013-03-12 03:40:00,50.4,41.3,30.00,SSE,161,0.0,0.0,71,0.00,,---,0.00,VWS V14.01,2013-03-12 10:40:00,
2013-03-12 03:45:00,50.4,41.3,30.00,SSE,161,0.0,0.0,71,0.00,,---,0.00,VWS V14.01,2013-03-12 10:45:00,
2013-03-12 03:50:00,50.4,41.0,30.00,SSE,161,0.0,0.0,70,0.00,,---,0.00,VWS V14.01,2013-03-12 10:50:00,
2013-03-12 03:55:00,50.2,40.8,29.97,SSE,161,0.0,0.0,70,0.00,,---,0.00,VWS V14.01,2013-03-12 10:55:00,
2013-03-12 04:00:00,50.2,40.8,29.97,SSE,161,0.0,0.0,70,0.00,,---,0.00,VWS V14.01,2013-03-12 11:00:00,
2013-03-12 04:05:00,50.2,40.8,29.97,SSE,161,0.0,0.0,70,0.00,,---,0.00,VWS V14.01,2013-03-12 11:05:00,
2013-03-12 04:10:00,50.2,40.8,29.97,SSE,161,0.0,0.0,70,0.00,,---,0.00,VWS V14.01,2013-03-12 11:10:00,
2013-03-12 04:15:00,50.2,40.8,29.97,SSE,161,0.0,0.0,70,0.00,,---,0.00,VWS V14.01,2013-03-12 11:15:00,
2013-03-12 04:20:00,50.0,40.6,29.97,SSE,161,0.0,0.0,70,0.00,,---,0.00,VWS V14.01,2013-03-12 11:20:00,
2013-03-12 04:25:00,50.0,40.6,29.97,SSE,161,0.0,0.0,70,0.00,,---,0.00,VWS V14.01,2013-03-12 11:25:00,
2013-03-12 04:30:00,50.0,40.6,29.97,SSE,161,0.0,0.0,70,0.00,,---,0.00,VWS V14.01,2013-03-12 11:30:00,
2013-03-12 04:35:00,49.8,40.4,29.97,SSE,161,0.0,0.0,70,0.00,,---,0.00,VWS V14.01,2013-03-12 11:35:00,
2013-03-12 04:40:00,49.8,40.4,29.97,SSE,161,0.0,0.0,70,0.00,,---,0.00,VWS V14.01,2013-03-12 11:40:00,
2013-03-12 04:45:00,49.8,40.4,29.97,SSE,161,0.0,0.0,70,0.00,,---,0.00,VWS V14.01,2013-03-12 11:45:00,
2013-03-12 04:50:00,49.8,40.1,29.97,SSE,161,0.0,0.0,69,0.00,,---,0.00,VWS V14.01,2013-03-12 11:50:00,
2013-03-12 04:55:00,49.8,40.1,29.94,SSE,161,0.0,0.0,69,0.00,,---,0.00,VWS V14.01,2013-03-12 11:55:00,
2013-03-12 05:00:00,49.8,40.1,29.94,SSE,161,0.0,0.0,69,0.00,,---,0.00,VWS V14.01,2013-03-12 12:00:00,
2013-03-12 05:05:00,49.8,40.1,29.94,SSE,161,0.0,0.0,69,0.00,,---,0.00,VWS V14.01,2013-03-12 12:05:00,
2013-03-12 05:10:00,49.6,39.9,29.94,SSE,161,0.0,0.0,69,0.00,,---,0.00,VWS V14.01,2013-03-12 12:10:00,
2013-03-12 05:15:00,49.6,39.9,29.94,SSE,161,0.0,0.0,69,0.00,,---,0.00,VWS V14.01,2013-03-12 12:15:00,
2013-03-12 05:20:00,49.6,39.5,29.94,SSE,161,0.0,0.0,68,0.00,,---,0.00,VWS V14.01,2013-03-12 12:20:00,
2013-03-12 05:25:00,49.6,39.5,29.94,SSE,161,0.0,0.0,68,0.00,,---,0.00,VWS V14.01,2013-03-12 12:25:00,
2013-03-12 05:30:00,49.5,39.3,29.94,SSE,161,0.0,0.0,68,0.00,,---,0.00,VWS V14.01,2013-03-12 12:30:00,
2013-03-12 05:35:00,49.5,39.3,29.94,SSE,161,0.0,0.0,68,0.00,,---,0.00,VWS V14.01,2013-03-12 12:35:00,
2013-03-12 05:39:00,49.5,39.3,29.97,SSE,161,0.0,0.0,68,0.00,,---,0.00,VWS V14.01,2013-03-12 12:39:00,
2013-03-12 05:44:00,49.5,39.3,29.97,SSE,161,0.0,0.0,68,0.00,,---,0.00,VWS V14.01,2013-03-12 12:44:00,
2013-03-12 05:49:00,49.5,39.3,29.97,SSE,161,0.0,0.0,68,0.00,,---,0.00,VWS V14.01,2013-03-12 12:49:00,
2013-03-12 05:54:00,49.3,39.2,29.97,SSE,161,0.0,0.0,68,0.00,,---,0.00,VWS V14.01,2013-03-12 12:54:00,
2013-03-12 05:59:00,49.3,39.2,29.97,SSE,161,0.0,0.0,68,0.00,,---,0.00,VWS V14.01,2013-03-12 12:59:00,
2013-03-12 06:04:00,49.3,39.2,29.97,SSE,161,0.0,0.0,68,0.00,,---,0.00,VWS V14.01,2013-03-12 13:04:00,
2013-03-12 06:09:00,49.3,39.5,29.97,SSE,161,0.0,0.0,69,0.00,,---,0.00,VWS V14.01,2013-03-12 13:09:00,
2013-03-12 06:14:00,49.3,39.5,29.97,SSE,161,0.0,0.0,69,0.00,,---,0.00,VWS V14.01,2013-03-12 13:14:00,
2013-03-12 06:19:00,49.3,39.5,29.97,SSE,161,0.0,0.0,69,0.00,,---,0.00,VWS V14.01,2013-03-12 13:19:00,
2013-03-12 06:24:00,49.3,39.5,29.94,SSE,161,0.0,0.0,69,0.00,,---,0.00,VWS V14.01,2013-03-12 13:24:00,
2013-03-12 06:29:00,49.3,39.5,29.94,SSE,161,0.0,0.0,69,0.00,,---,0.00,VWS V14.01,2013-03-12 13:29:00,
2013-03-12 06:34:00,49.3,39.5,29.94,SSE,161,0.0,0.0,69,0.00,,---,0.00,VWS V14.01,2013-03-12 13:34:00,
2013-03-12 06:39:00,49.3,39.5,29.94,SSE,161,0.0,0.0,69,0.00,,---,0.00,VWS V14.01,2013-03-12 13:39:00,
2013-03-12 06:44:00,49.1,39.4,29.94,SSE,161,0.0,0.0,69,0.00,,---,0.00,VWS V14.01,2013-03-12 13:44:00,
2013-03-12 06:49:00,49.1,39.4,29.94,SSE,161,0.0,0.0,69,0.00,,---,0.00,VWS V14.01,2013-03-12 13:49:00,
2013-03-12 06:54:00,49.1,39.4,29.94,SSE,161,0.0,0.0,69,0.00,,---,0.00,VWS V14.01,2013-03-12 13:54:00,
2013-03-12 06:59:00,49.1,39.4,29.94,SSE,161,0.0,0.0,69,0.00,,---,0.00,VWS V14.01,2013-03-12 13:59:00,
2013-03-12 07:04:00,49.1,39.4,29.94,SSE,161,0.0,0.0,69,0.00,,---,0.00,VWS V14.01,2013-03-12 14:04:00,
2013-03-12 07:09:00,49.1,39.4,29.94,SSE,161,0.0,0.0,69,0.00,,---,0.00,VWS V14.01,2013-03-12 14:09:00,
2013-03-12 07:14:00,49.1,39.4,29.94,SSE,161,0.0,0.0,69,0.00,,---,0.00,VWS V14.01,2013-03-12 14:14:00,
2013-03-12 07:19:00,49.1,39.4,29.94,SSE,161,0.0,0.0,69,0.00,,---,0.00,VWS V14.01,2013-03-12 14:19:00,
2013-03-12 07:24:00,49.1,39.4,29.94,SSE,161,0.0,0.0,69,0.00,,---,0.00,VWS V14.01,2013-03-12 14:24:00,
2013-03-12 07:29:00,49.1,39.4,29.94,SSE,161,0.0,0.0,69,0.00,,---,0.00,VWS V14.01,2013-03-12 14:29:00,
2013-03-12 07:34:00,49.1,39.8,29.94,SSE,161,0.0,0.0,70,0.00,,---,0.00,VWS V14.01,2013-03-12 14:34:00,
2013-03-12 07:39:00,49.1,39.8,29.97,SSE,161,0.0,0.0,70,0.00,,---,0.00,VWS V14.01,2013-03-12 14:39:00,
2013-03-12 07:44:00,49.3,39.9,29.97,SSE,161,0.0,0.0,70,0.00,,---,0.00,VWS V14.01,2013-03-12 14:44:00,
2013-03-12 07:49:00,49.3,39.9,29.97,SSE,161,0.0,0.0,70,0.00,,---,0.00,VWS V14.01,2013-03-12 14:49:00,
2013-03-12 07:54:00,49.5,40.1,29.97,SSE,161,0.0,0.0,70,0.00,,---,0.00,VWS V14.01,2013-03-12 14:54:00,
2013-03-12 07:59:00,49.5,40.5,29.97,SSE,161,0.0,0.0,71,0.00,,---,0.00,VWS V14.01,2013-03-12 14:59:00,
2013-03-12 08:04:00,49.6,40.6,29.97,SSE,161,0.0,0.0,71,0.00,,---,0.00,VWS V14.01,2013-03-12 15:04:00,
2013-03-12 08:09:00,49.8,40.8,29.97,SSE,161,0.0,0.0,71,0.00,,---,0.00,VWS V14.01,2013-03-12 15:09:00,
2013-03-12 08:14:00,49.8,41.2,29.97,SSE,161,0.0,0.0,72,0.00,,---,0.00,VWS V14.01,2013-03-12 15:14:00,
2013-03-12 08:19:00,50.0,41.3,29.97,SSE,161,0.0,0.0,72,0.00,,---,0.00,VWS V14.01,2013-03-12 15:19:00,
2013-03-12 08:24:00,50.2,41.5,29.94,SSE,161,0.0,0.0,72,0.00,,---,0.00,VWS V14.01,2013-03-12 15:24:00,
2013-03-12 08:29:00,50.4,41.7,29.94,SSE,161,0.0,0.0,72,0.00,,---,0.00,VWS V14.01,2013-03-12 15:29:00,
2013-03-12 08:34:00,50.5,42.2,29.94,SSE,161,0.0,0.0,73,0.00,,---,0.00,VWS V14.01,2013-03-12 15:34:00,
2013-03-12 08:39:00,50.7,42.4,29.97,SSE,161,0.0,0.0,73,0.00,,---,0.00,VWS V14.01,2013-03-12 15:39:00,
2013-03-12 08:44:00,50.9,42.9,29.97,SSE,161,0.0,0.0,74,0.00,,---,0.00,VWS V14.01,2013-03-12 15:44:00,
2013-03-12 08:49:00,51.3,43.3,29.97,SSE,161,0.0,0.0,74,0.00,,---,0.00,VWS V14.01,2013-03-12 15:49:00,
2013-03-12 08:54:00,51.4,43.8,29.97,SSE,161,0.0,0.0,75,0.00,,---,0.00,VWS V14.01,2013-03-12 15:54:00,
2013-03-12 08:59:00,51.6,44.0,29.97,SSE,161,0.0,0.0,75,0.00,,---,0.00,VWS V14.01,2013-03-12 15:59:00,
2013-03-12 09:04:00,52.0,44.3,29.97,WSW,256,0.0,0.0,75,0.00,,---,0.00,VWS V14.01,2013-03-12 16:04:00,
2013-03-12 09:09:00,52.2,44.5,30.00,West,267,0.0,0.0,75,0.00,,---,0.00,VWS V14.01,2013-03-12 16:09:00,
2013-03-12 09:14:00,52.5,45.2,30.00,West,267,0.0,0.0,76,0.00,,---,0.00,VWS V14.01,2013-03-12 16:14:00,
2013-03-12 09:19:00,52.9,45.5,30.00,West,271,0.0,0.0,76,0.00,,---,0.00,VWS V14.01,2013-03-12 16:19:00,
2013-03-12 09:24:00,53.2,45.5,30.00,West,279,0.0,0.0,75,0.00,,---,0.00,VWS V14.01,2013-03-12 16:24:00,
2013-03-12 09:29:00,53.8,46.0,30.00,WNW,289,0.0,0.0,75,0.00,,---,0.00,VWS V14.01,2013-03-12 16:29:00,
2013-03-12 09:34:00,54.3,46.2,30.00,West,279,0.0,0.0,74,0.00,,---,0.00,VWS V14.01,2013-03-12 16:34:00,
2013-03-12 09:39:00,54.7,46.6,30.00,SW,218,0.0,0.0,74,0.00,,---,0.00,VWS V14.01,2013-03-12 16:39:00,
2013-03-12 09:44:00,55.2,46.7,30.00,West,259,0.0,0.0,73,0.00,,---,0.00,VWS V14.01,2013-03-12 16:44:00,
2013-03-12 09:49:00,55.6,46.7,30.00,WNW,302,0.0,0.0,72,0.00,,---,0.00,VWS V14.01,2013-03-12 16:49:00,
2013-03-12 09:54:00,56.1,47.2,30.00,West,274,0.0,0.0,72,0.00,,---,0.00,VWS V14.01,2013-03-12 16:54:00,
2013-03-12 09:59:00,56.7,47.4,30.00,SW,233,0.0,0.0,71,0.00,,---,0.00,VWS V14.01,2013-03-12 16:59:00,
2013-03-12 10:04:00,57.0,47.7,30.00,SW,216,0.0,0.0,71,0.00,,---,0.00,VWS V14.01,2013-03-12 17:04:00,
2013-03-12 10:09:00,57.6,47.5,30.00,South,175,0.0,0.0,69,0.00,,---,0.00,VWS V14.01,2013-03-12 17:09:00,
2013-03-12 10:14:00,58.3,47.8,30.00,WSW,243,0.0,0.0,68,0.00,,---,0.00,VWS V14.01,2013-03-12 17:14:00,
2013-03-12 10:19:00,59.0,47.7,30.00,SW,219,0.0,0.0,66,0.00,,---,0.00,VWS V14.01,2013-03-12 17:19:00,
2013-03-12 10:24:00,59.7,48.0,30.00,SSW,193,0.0,0.0,65,0.00,,---,0.00,VWS V14.01,2013-03-12 17:24:00,
2013-03-12 10:29:00,60.4,47.8,30.00,South,179,0.0,0.0,63,0.00,,---,0.00,VWS V14.01,2013-03-12 17:29:00,
2013-03-12 10:34:00,61.0,47.5,30.00,WSW,244,0.0,0.0,61,0.00,,---,0.00,VWS V14.01,2013-03-12 17:34:00,
2013-03-12 10:39:00,61.7,47.2,30.00,WSW,238,0.0,0.0,59,0.00,,---,0.00,VWS V14.01,2013-03-12 17:39:00,
2013-03-12 10:44:00,62.4,46.5,30.00,WSW,243,0.0,0.0,56,0.00,,---,0.00,VWS V14.01,2013-03-12 17:44:00,
2013-03-12 10:49:00,63.3,45.9,30.00,WSW,240,0.0,0.0,53,0.00,,---,0.00,VWS V14.01,2013-03-12 17:49:00,
2013-03-12 10:54:00,63.9,46.4,30.00,SW,219,0.0,0.0,53,0.00,,---,0.00,VWS V14.01,2013-03-12 17:54:00,
2013-03-12 10:59:00,64.4,46.4,30.00,West,262,0.0,0.0,52,0.00,,---,0.00,VWS V14.01,2013-03-12 17:59:00,
2013-03-12 11:04:00,64.9,46.4,30.00,WSW,239,0.0,0.0,51,0.00,,---,0.00,VWS V14.01,2013-03-12 18:04:00,
2013-03-12 11:09:00,65.3,46.7,30.00,West,273,0.0,0.0,51,0.00,,---,0.00,VWS V14.01,2013-03-12 18:09:00,
2013-03-12 11:14:00,65.7,46.0,30.00,WNW,291,0.0,0.0,49,0.00,,---,0.00,VWS V14.01,2013-03-12 18:14:00,
2013-03-12 11:19:00,65.8,46.2,30.00,West,278,0.0,0.0,49,0.00,,---,0.00,VWS V14.01,2013-03-12 18:19:00,
2013-03-12 11:24:00,66.0,46.3,30.00,WNW,302,0.0,0.0,49,0.00,,---,0.00,VWS V14.01,2013-03-12 18:24:00,
2013-03-12 11:29:00,66.4,46.1,30.00,WSW,245,0.0,0.0,48,0.00,,---,0.00,VWS V14.01,2013-03-12 18:29:00,
2013-03-12 11:34:00,66.7,47.0,30.00,SW,218,0.0,0.0,49,0.00,,---,0.00,VWS V14.01,2013-03-12 18:34:00,
2013-03-12 11:39:00,67.1,46.2,30.00,SW,233,0.0,0.0,47,0.00,,---,0.00,VWS V14.01,2013-03-12 18:39:00,
2013-03-12 11:44:00,67.5,46.0,30.00,West,278,0.0,0.0,46,0.00,,---,0.00,VWS V14.01,2013-03-12 18:44:00,
2013-03-12 11:49:00,67.8,45.7,30.00,SW,226,0.0,0.0,45,0.00,,---,0.00,VWS V14.01,2013-03-12 18:49:00,
2013-03-12 11:54:00,68.4,46.2,30.00,West,262,0.0,0.0,45,0.00,,---,0.00,VWS V14.01,2013-03-12 18:54:00,
2013-03-12 11:59:00,68.7,47.1,30.00,West,271,0.0,0.0,46,0.00,,---,0.00,VWS V14.01,2013-03-12 18:59:00,
2013-03-12 12:04:00,69.1,45.0,30.00,West,272,0.0,0.0,42,0.00,,---,0.00,VWS V14.01,2013-03-12 19:04:00,
2013-03-12 12:09:00,69.4,45.4,30.00,WNW,292,0.0,0.0,42,0.00,,---,0.00,VWS V14.01,2013-03-12 19:09:00,
2013-03-12 12:14:00,69.8,45.7,30.00,SW,228,0.0,0.0,42,0.00,,---,0.00,VWS V14.01,2013-03-12 19:14:00,
2013-03-12 12:19:00,70.2,46.6,30.00,WSW,250,0.0,0.0,43,0.00,,---,0.00,VWS V14.01,2013-03-12 19:19:00,
2013-03-12 12:24:00,70.5,47.0,30.00,SW,233,0.0,0.0,43,0.00,,---,0.00,VWS V14.01,2013-03-12 19:24:00,
2013-03-12 12:29:00,71.1,46.8,30.00,SW,217,0.0,0.0,42,0.00,,---,0.00,VWS V14.01,2013-03-12 19:29:00,
2013-03-12 12:34:00,71.4,47.2,30.00,NNE,24,0.0,0.0,42,0.00,,---,0.00,VWS V14.01,2013-03-12 19:34:00,
2013-03-12 12:39:00,71.6,46.7,30.00,West,273,0.0,0.0,41,0.00,,---,0.00,VWS V14.01,2013-03-12 19:39:00,
2013-03-12 12:44:00,71.8,46.8,30.00,NW,308,0.0,0.0,41,0.00,,---,0.00,VWS V14.01,2013-03-12 19:44:00,
2013-03-12 12:49:00,72.1,47.2,30.00,WSW,244,0.0,0.0,41,0.00,,---,0.00,VWS V14.01,2013-03-12 19:49:00,
2013-03-12 12:54:00,72.7,47.7,30.00,SSW,212,0.0,0.0,41,0.00,,---,0.00,VWS V14.01,2013-03-12 19:54:00,
2013-03-12 12:59:00,73.0,47.3,30.00,WNW,289,0.0,0.0,40,0.00,,---,0.00,VWS V14.01,2013-03-12 19:59:00,
2013-03-12 13:04:00,73.6,47.8,30.00,SW,236,0.0,0.0,40,0.00,,---,0.00,VWS V14.01,2013-03-12 20:04:00,
2013-03-12 13:09:00,73.9,48.1,30.00,NW,306,0.0,0.0,40,0.00,,---,0.00,VWS V14.01,2013-03-12 20:09:00,
2013-03-12 13:14:00,74.1,48.3,30.00,NW,311,0.0,0.0,40,0.00,,---,0.00,VWS V14.01,2013-03-12 20:14:00,
2013-03-12 13:19:00,74.5,48.6,30.00,NNW,337,0.0,0.0,40,0.00,,---,0.00,VWS V14.01,2013-03-12 20:19:00,
2013-03-12 13:24:00,74.7,48.8,29.97,NW,326,0.0,0.0,40,0.00,,---,0.00,VWS V14.01,2013-03-12 20:24:00,
2013-03-12 13:29:00,74.7,49.4,29.97,NW,318,0.0,0.0,41,0.00,,---,0.00,VWS V14.01,2013-03-12 20:29:00,
2013-03-12 13:34:00,75.0,49.1,29.97,NW,314,0.0,0.0,40,0.00,,---,0.00,VWS V14.01,2013-03-12 20:34:00,
2013-03-12 13:39:00,75.2,49.2,30.00,West,279,0.0,0.0,40,0.00,,---,0.00,VWS V14.01,2013-03-12 20:39:00,
2013-03-12 13:44:00,75.6,49.6,30.00,WNW,298,0.0,0.0,40,0.00,,---,0.00,VWS V14.01,2013-03-12 20:44:00,
2013-03-12 13:49:00,75.9,49.2,30.00,SW,232,0.0,0.0,39,0.00,,---,0.00,VWS V14.01,2013-03-12 20:49:00,
2013-03-12 13:54:00,76.3,49.5,29.97,SW,234,0.0,0.0,39,0.00,,---,0.00,VWS V14.01,2013-03-12 20:54:00,
2013-03-12 13:59:00,77.0,48.8,29.97,West,270,0.0,0.0,37,0.00,,---,0.00,VWS V14.01,2013-03-12 20:59:00,
2013-03-12 14:04:00,77.2,49.6,29.97,South,184,0.0,0.0,38,0.00,,---,0.00,VWS V14.01,2013-03-12 21:04:00,
2013-03-12 14:09:00,77.4,51.2,29.97,South,188,0.0,0.0,40,0.00,,---,0.00,VWS V14.01,2013-03-12 21:09:00,
2013-03-12 14:14:00,77.5,51.3,29.97,West,265,0.0,0.0,40,0.00,,---,0.00,VWS V14.01,2013-03-12 21:14:00,
2013-03-12 14:19:00,77.4,51.2,29.97,SE,125,0.0,0.0,40,0.00,,---,0.00,VWS V14.01,2013-03-12 21:19:00,
2013-03-12 14:24:00,77.2,51.0,29.97,South,170,0.0,0.0,40,0.00,,---,0.00,VWS V14.01,2013-03-12 21:24:00,
2013-03-12 14:29:00,77.2,51.7,29.97,SSW,197,0.0,0.0,41,0.00,,---,0.00,VWS V14.01,2013-03-12 21:29:00,
2013-03-12 14:34:00,77.4,51.2,29.97,SSE,151,0.0,0.0,40,0.00,,---,0.00,VWS V14.01,2013-03-12 21:34:00,
2013-03-12 14:39:00,77.4,51.2,29.97,SW,219,0.0,0.0,40,0.00,,---,0.00,VWS V14.01,2013-03-12 21:39:00,
2013-03-12 14:44:00,77.5,51.3,29.97,South,175,0.0,0.0,40,0.00,,---,0.00,VWS V14.01,2013-03-12 21:44:00,
2013-03-12 14:49:00,77.7,52.2,29.97,SSW,195,0.0,0.0,41,0.00,,---,0.00,VWS V14.01,2013-03-12 21:49:00,
2013-03-12 14:54:00,77.7,51.5,29.97,SW,231,0.0,0.0,40,0.00,,---,0.00,VWS V14.01,2013-03-12 21:54:00,
2013-03-12 14:59:00,77.7,51.5,29.97,West,265,0.0,0.0,40,0.00,,---,0.00,VWS V14.01,2013-03-12 21:59:00,
2013-03-12 15:04:00,77.9,51.7,29.97,WSW,245,0.0,0.0,40,0.00,,---,0.00,VWS V14.01,2013-03-12 22:04:00,
2013-03-12 15:09:00,77.9,52.3,29.97,SW,235,0.0,0.0,41,0.00,,---,0.00,VWS V14.01,2013-03-12 22:09:00,
2013-03-12 15:14:00,77.9,51.7,29.97,SW,223,0.0,0.0,40,0.00,,---,0.00,VWS V14.01,2013-03-12 22:14:00,
2013-03-12 15:19:00,77.9,51.7,29.97,SW,217,0.0,0.0,40,0.00,,---,0.00,VWS V14.01,2013-03-12 22:19:00,
2013-03-12 15:24:00,77.9,51.7,29.97,SSW,213,0.0,0.0,40,0.00,,---,0.00,VWS V14.01,2013-03-12 22:24:00,
2013-03-12 15:29:00,77.9,51.7,29.97,SE,126,0.0,0.0,40,0.00,,---,0.00,VWS V14.01,2013-03-12 22:29:00,
2013-03-12 15:34:00,77.9,51.7,29.97,West,274,0.0,0.0,40,0.00,,---,0.00,VWS V14.01,2013-03-12 22:34:00,
2013-03-12 15:39:00,77.9,50.3,29.97,WNW,294,0.0,0.0,38,0.00,,---,0.00,VWS V14.01,2013-03-12 22:39:00,
2013-03-12 15:44:00,77.9,50.3,29.97,SW,225,0.0,0.0,38,0.00,,---,0.00,VWS V14.01,2013-03-12 22:44:00,
2013-03-12 15:49:00,78.1,49.7,29.97,West,267,0.0,0.0,37,0.00,,---,0.00,VWS V14.01,2013-03-12 22:49:00,
2013-03-12 15:54:00,78.1,48.2,29.97,NW,316,0.0,0.0,35,0.00,,---,0.00,VWS V14.01,2013-03-12 22:54:00,
2013-03-12 15:59:00,78.1,46.7,29.97,NNW,337,0.0,0.0,33,0.00,,---,0.00,VWS V14.01,2013-03-12 22:59:00,
2013-03-12 16:04:00,78.1,46.7,29.97,WNW,302,0.0,0.0,33,0.00,,---,0.00,VWS V14.01,2013-03-12 23:04:00,
2013-03-12 16:09:00,78.1,45.8,29.97,WNW,297,0.0,0.0,32,0.00,,---,0.00,VWS V14.01,2013-03-12 23:09:00,
2013-03-12 16:14:00,78.1,45.8,29.97,West,279,0.0,0.0,32,0.00,,---,0.00,VWS V14.01,2013-03-12 23:14:00,
2013-03-12 16:19:00,77.9,45.7,29.97,NNE,29,0.0,0.0,32,0.00,,---,0.00,VWS V14.01,2013-03-12 23:19:00,
2013-03-12 16:24:00,77.7,45.5,29.97,WNW,282,0.0,0.0,32,0.00,,---,0.00,VWS V14.01,2013-03-12 23:24:00,
2013-03-12 16:29:00,77.7,44.7,29.97,WNW,299,0.0,0.0,31,0.00,,---,0.00,VWS V14.01,2013-03-12 23:29:00,
2013-03-12 16:34:00,77.7,44.7,29.97,NW,308,0.0,0.0,31,0.00,,---,0.00,VWS V14.01,2013-03-12 23:34:00,
2013-03-12 16:39:00,77.5,44.5,29.97,WNW,284,0.0,0.0,31,0.00,,---,0.00,VWS V14.01,2013-03-12 23:39:00,
2013-03-12 16:44:00,77.5,44.5,29.97,NW,325,0.0,0.0,31,0.00,,---,0.00,VWS V14.01,2013-03-12 23:44:00,
2013-03-12 16:49:00,77.4,44.4,29.97,WNW,289,0.0,0.0,31,0.00,,---,0.00,VWS V14.01,2013-03-12 23:49:00,
2013-03-12 16:54:00,77.4,44.4,29.97,NW,315,0.0,0.0,31,0.00,,---,0.00,VWS V14.01,2013-03-12 23:54:00,
2013-03-12 16:59:00,77.4,44.4,29.97,WNW,297,0.0,0.0,31,0.00,,---,0.00,VWS V14.01,2013-03-12 23:59:00,
2013-03-12 17:04:00,77.4,44.4,29.97,NNW,330,0.0,0.0,31,0.00,,---,0.00,VWS V14.01,2013-03-13 00:04:00,
2013-03-12 17:09:00,77.2,44.2,29.97,WNW,298,0.0,0.0,31,0.00,,---,0.00,VWS V14.01,2013-03-13 00:09:00,
2013-03-12 17:14:00,77.2,44.2,29.97,NNW,334,0.0,0.0,31,0.00,,---,0.00,VWS V14.01,2013-03-13 00:14:00,
2013-03-12 17:19:00,77.0,43.2,29.97,NW,309,0.0,0.0,30,0.00,,---,0.00,VWS V14.01,2013-03-13 00:19:00,
2013-03-12 17:24:00,77.0,43.2,30.00,WNW,291,0.0,0.0,30,0.00,,---,0.00,VWS V14.01,2013-03-13 00:24:00,
2013-03-12 17:29:00,77.0,43.2,30.00,WNW,284,0.0,0.0,30,0.00,,---,0.00,VWS V14.01,2013-03-13 00:29:00,
2013-03-12 17:34:00,76.8,43.9,30.00,NW,322,0.0,0.0,31,0.00,,---,0.00,VWS V14.01,2013-03-13 00:34:00,
2013-03-12 17:39:00,76.6,43.8,30.00,North,353,0.0,0.0,31,0.00,,---,0.00,VWS V14.01,2013-03-13 00:39:00,
2013-03-12 17:44:00,76.5,43.6,30.00,NW,319,0.0,0.0,31,0.00,,---,0.00,VWS V14.01,2013-03-13 00:44:00,
2013-03-12 17:49:00,76.3,43.5,30.00,North,357,0.0,0.0,31,0.00,,---,0.00,VWS V14.01,2013-03-13 00:49:00,
2013-03-12 17:54:00,75.9,43.1,30.00,NW,312,0.0,0.0,31,0.00,,---,0.00,VWS V14.01,2013-03-13 00:54:00,
2013-03-12 17:59:00,75.7,43.0,30.00,WNW,301,0.0,0.0,31,0.00,,---,0.00,VWS V14.01,2013-03-13 00:59:00,
2013-03-12 18:04:00,75.4,42.7,30.00,NNW,330,0.0,0.0,31,0.00,,---,0.00,VWS V14.01,2013-03-13 01:04:00,
2013-03-12 18:09:00,75.0,43.2,30.00,NW,310,0.0,0.0,32,0.00,,---,0.00,VWS V14.01,2013-03-13 01:09:00,
2013-03-12 18:14:00,74.7,43.7,30.00,NW,310,0.0,0.0,33,0.00,,---,0.00,VWS V14.01,2013-03-13 01:14:00,
2013-03-12 18:19:00,74.5,43.5,30.00,WNW,299,0.0,0.0,33,0.00,,---,0.00,VWS V14.01,2013-03-13 01:19:00,
2013-03-12 18:24:00,74.3,44.1,30.00,NW,306,0.0,0.0,34,0.00,,---,0.00,VWS V14.01,2013-03-13 01:24:00,
2013-03-12 18:29:00,73.9,45.3,30.00,WNW,301,0.0,0.0,36,0.00,,---,0.00,VWS V14.01,2013-03-13 01:29:00,
2013-03-12 18:34:00,73.8,45.9,30.00,North,349,0.0,0.0,37,0.00,,---,0.00,VWS V14.01,2013-03-13 01:34:00,
2013-03-12 18:39:00,73.4,46.3,30.00,NW,312,0.0,0.0,38,0.00,,---,0.00,VWS V14.01,2013-03-13 01:39:00,
2013-03-12 18:44:00,73.0,47.3,30.00,NW,311,0.0,0.0,40,0.00,,---,0.00,VWS V14.01,2013-03-13 01:44:00,
2013-03-12 18:49:00,72.9,48.5,30.00,NNW,338,0.0,0.0,42,0.00,,---,0.00,VWS V14.01,2013-03-13 01:49:00,
2013-03-12 18:54:00,72.5,48.1,30.00,NW,317,0.0,0.0,42,0.00,,---,0.00,VWS V14.01,2013-03-13 01:54:00,
2013-03-12 18:59:00,72.3,48.0,30.00,NNW,328,0.0,0.0,42,0.00,,---,0.00,VWS V14.01,2013-03-13 01:59:00,
2013-03-12 19:04:00,72.0,48.3,30.00,North,0,0.0,0.0,43,0.00,,---,0.00,VWS V14.01,2013-03-13 02:04:00,
2013-03-12 19:09:00,71.6,47.9,30.03,NW,316,0.0,0.0,43,0.00,,---,0.00,VWS V14.01,2013-03-13 02:09:00,
2013-03-12 19:14:00,71.4,48.4,30.03,NW,315,0.0,0.0,44,0.00,,---,0.00,VWS V14.01,2013-03-13 02:14:00,
2013-03-12 19:19:00,71.1,48.7,30.03,NW,315,0.0,0.0,45,0.00,,---,0.00,VWS V14.01,2013-03-13 02:19:00,
2013-03-12 19:24:00,70.9,49.1,30.00,NW,315,0.0,0.0,46,0.00,,---,0.00,VWS V14.01,2013-03-13 02:24:00,
2013-03-12 19:29:00,70.5,49.3,30.00,NW,315,0.0,0.0,47,0.00,,---,0.00,VWS V14.01,2013-03-13 02:29:00,
2013-03-12 19:34:00,70.3,49.2,30.00,NW,315,0.0,0.0,47,0.00,,---,0.00,VWS V14.01,2013-03-13 02:34:00,
2013-03-12 19:39:00,70.0,48.8,30.03,NW,315,0.0,0.0,47,0.00,,---,0.00,VWS V14.01,2013-03-13 02:39:00,
2013-03-12 19:44:00,69.8,48.7,30.03,NW,315,0.0,0.0,47,0.00,,---,0.00,VWS V14.01,2013-03-13 02:44:00,
2013-03-12 19:49:00,69.6,49.1,30.03,NW,315,0.0,0.0,48,0.00,,---,0.00,VWS V14.01,2013-03-13 02:49:00,
2013-03-12 19:54:00,69.4,48.9,30.00,NW,315,0.0,0.0,48,0.00,,---,0.00,VWS V14.01,2013-03-13 02:54:00,
2013-03-12 19:59:00,69.3,48.8,30.00,NW,315,0.0,0.0,48,0.00,,---,0.00,VWS V14.01,2013-03-13 02:59:00,
2013-03-12 20:04:00,68.9,48.4,30.00,NW,315,0.0,0.0,48,0.00,,---,0.00,VWS V14.01,2013-03-13 03:04:00,
2013-03-12 20:09:00,68.7,48.8,30.00,NW,315,0.0,0.0,49,0.00,,---,0.00,VWS V14.01,2013-03-13 03:09:00,
2013-03-12 20:14:00,68.5,48.6,30.00,NW,315,0.0,0.0,49,0.00,,---,0.00,VWS V14.01,2013-03-13 03:14:00,
2013-03-12 20:19:00,68.4,49.0,30.00,NW,315,0.0,0.0,50,0.00,,---,0.00,VWS V14.01,2013-03-13 03:19:00,
2013-03-12 20:24:00,68.2,48.8,30.00,NW,315,0.0,0.0,50,0.00,,---,0.00,VWS V14.01,2013-03-13 03:24:00,
2013-03-12 20:29:00,68.0,48.7,30.00,NW,315,0.0,0.0,50,0.00,,---,0.00,VWS V14.01,2013-03-13 03:29:00,
2013-03-12 20:34:00,67.6,48.9,30.00,NW,315,0.0,0.0,51,0.00,,---,0.00,VWS V14.01,2013-03-13 03:34:00,
2013-03-12 20:39:00,67.5,48.7,29.97,NW,315,0.0,0.0,51,0.00,,---,0.00,VWS V14.01,2013-03-13 03:39:00,
2013-03-12 20:44:00,67.3,48.5,29.97,NW,315,0.0,0.0,51,0.00,,---,0.00,VWS V14.01,2013-03-13 03:44:00,
2013-03-12 20:49:00,66.9,48.7,29.97,NW,315,0.0,0.0,52,0.00,,---,0.00,VWS V14.01,2013-03-13 03:49:00,
2013-03-12 20:54:00,66.7,48.6,29.97,NW,315,0.0,0.0,52,0.00,,---,0.00,VWS V14.01,2013-03-13 03:54:00,
2013-03-12 20:59:00,66.6,48.4,29.97,NW,315,0.0,0.0,52,0.00,,---,0.00,VWS V14.01,2013-03-13 03:59:00,
2013-03-12 21:00:00,66.4,48.2,29.97,NW,315,0.0,0.0,52,0.00,,---,0.00,VWS V14.01,2013-03-13 04:00:00,
2013-03-12 21:05:00,66.2,48.6,29.97,NW,315,0.0,0.0,53,0.00,,---,0.00,VWS V14.01,2013-03-13 04:05:00,
2013-03-12 21:10:00,66.0,48.9,29.97,NW,315,0.0,0.0,54,0.00,,---,0.00,VWS V14.01,2013-03-13 04:10:00,
2013-03-12 21:15:00,65.8,48.8,29.97,NW,315,0.0,0.0,54,0.00,,---,0.00,VWS V14.01,2013-03-13 04:15:00,
2013-03-12 21:20:00,65.5,48.4,29.97,NW,315,0.0,0.0,54,0.00,,---,0.00,VWS V14.01,2013-03-13 04:20:00,
2013-03-12 21:25:00,65.3,48.7,29.97,NW,315,0.0,0.0,55,0.00,,---,0.00,VWS V14.01,2013-03-13 04:25:00,
2013-03-12 21:30:00,64.9,48.4,29.97,NW,315,0.0,0.0,55,0.00,,---,0.00,VWS V14.01,2013-03-13 04:30:00,
2013-03-12 21:35:00,64.8,48.2,29.97,NW,315,0.0,0.0,55,0.00,,---,0.00,VWS V14.01,2013-03-13 04:35:00,
2013-03-12 21:40:00,64.6,48.5,29.97,NW,315,0.0,0.0,56,0.00,,---,0.00,VWS V14.01,2013-03-13 04:40:00,
2013-03-12 21:45:00,64.2,48.7,29.97,NW,315,0.0,0.0,57,0.00,,---,0.00,VWS V14.01,2013-03-13 04:45:00,
2013-03-12 21:50:00,64.2,48.7,29.97,NW,315,0.0,0.0,57,0.00,,---,0.00,VWS V14.01,2013-03-13 04:50:00,
2013-03-12 21:55:00,64.0,48.5,29.97,NW,315,0.0,0.0,57,0.00,,---,0.00,VWS V14.01,2013-03-13 04:55:00,
2013-03-12 22:00:00,63.9,48.8,29.97,NW,315,0.0,0.0,58,0.00,,---,0.00,VWS V14.01,2013-03-13 05:00:00,
2013-03-12 22:05:00,63.7,48.6,29.97,NW,315,0.0,0.0,58,0.00,,---,0.00,VWS V14.01,2013-03-13 05:05:00,
2013-03-12 22:10:00,63.5,48.5,29.97,NW,315,0.0,0.0,58,0.00,,---,0.00,VWS V14.01,2013-03-13 05:10:00,
2013-03-12 22:15:00,63.3,48.3,29.97,NW,315,0.0,0.0,58,0.00,,---,0.00,VWS V14.01,2013-03-13 05:15:00,
2013-03-12 22:20:00,63.0,48.4,29.97,NW,315,0.0,0.0,59,0.00,,---,0.00,VWS V14.01,2013-03-13 05:20:00,
2013-03-12 22:25:00,62.8,48.3,29.97,NW,315,0.0,0.0,59,0.00,,---,0.00,VWS V14.01,2013-03-13 05:25:00,
2013-03-12 22:30:00,62.6,48.1,29.97,NW,315,0.0,0.0,59,0.00,,---,0.00,VWS V14.01,2013-03-13 05:30:00,
2013-03-12 22:35:00,62.4,48.4,29.97,NW,315,0.0,0.0,60,0.00,,---,0.00,VWS V14.01,2013-03-13 05:35:00,
2013-03-12 22:40:00,62.2,48.2,29.97,NW,315,0.0,0.0,60,0.00,,---,0.00,VWS V14.01,2013-03-13 05:40:00,
2013-03-12 22:45:00,62.2,48.6,29.97,NW,315,0.0,0.0,61,0.00,,---,0.00,VWS V14.01,2013-03-13 05:45:00,
2013-03-12 22:50:00,62.1,48.5,29.97,NW,315,0.0,0.0,61,0.00,,---,0.00,VWS V14.01,2013-03-13 05:50:00,
2013-03-12 22:55:00,62.1,48.5,29.97,NW,315,0.0,0.0,61,0.00,,---,0.00,VWS V14.01,2013-03-13 05:55:00,
2013-03-12 23:00:00,61.9,48.3,29.97,NW,315,0.0,0.0,61,0.00,,---,0.00,VWS V14.01,2013-03-13 06:00:00,
2013-03-12 23:05:00,61.9,48.3,29.97,NW,315,0.0,0.0,61,0.00,,---,0.00,VWS V14.01,2013-03-13 06:05:00,
2013-03-12 23:10:00,61.7,48.1,29.94,NW,315,0.0,0.0,61,0.00,,---,0.00,VWS V14.01,2013-03-13 06:10:00,
2013-03-12 23:15:00,61.5,48.0,29.94,NW,315,0.0,0.0,61,0.00,,---,0.00,VWS V14.01,2013-03-13 06:15:00,
2013-03-12 23:20:00,61.5,48.0,29.94,NW,315,0.0,0.0,61,0.00,,---,0.00,VWS V14.01,2013-03-13 06:20:00,
2013-03-12 23:25:00,61.3,47.8,30.00,NW,315,0.0,0.0,61,0.00,,---,0.00,VWS V14.01,2013-03-13 06:25:00,
2013-03-12 23:30:00,61.2,47.6,30.00,NW,315,0.0,0.0,61,0.00,,---,0.00,VWS V14.01,2013-03-13 06:30:00,
2013-03-12 23:35:00,61.0,47.5,30.00,NW,315,0.0,0.0,61,0.00,,---,0.00,VWS V14.01,2013-03-13 06:35:00,
2013-03-12 23:40:00,60.8,47.3,30.00,NW,315,0.0,0.0,61,0.00,,---,0.00,VWS V14.01,2013-03-13 06:40:00,
2013-03-12 23:45:00,60.6,47.1,30.00,NW,315,0.0,0.0,61,0.00,,---,0.00,VWS V14.01,2013-03-13 06:45:00,
2013-03-12 23:50:00,60.4,47.4,30.00,NW,315,0.0,0.0,62,0.00,,---,0.00,VWS V14.01,2013-03-13 06:50:00,
2013-03-12 23:55:00,60.4,47.4,30.00,NW,315,0.0,0.0,62,0.00,,---,0.00,VWS V14.01,2013-03-13 06:55:00,